• In Czech Republic
  • List of Countries
  • For 7 days
  • Water Temperature
  • Satellite Maps
  • Weather Map
  • Weather Widgets
  • user-avatar
    Login

    Hourly Weather Zorya

    Today, 28 May, Monday

    Time Temperature Precipitation Wind Pressure Humidity
    00:00 +13°C° 0 mm 5 mps 756 mmHg 67%
    01:00 +13°C° 0 mm 5 mps 756 mmHg 66%
    02:00 +12°C° 0 mm 5 mps 756 mmHg 65%
    03:00 +12°C° 0 mm 5 mps 756 mmHg 63%
    04:00 +11°C° 0 mm 6 mps 756 mmHg 63%
    05:00 +11°C° 0 mm 6 mps 756 mmHg 63%
    06:00 +11°C° 0 mm 6 mps 756 mmHg 62%
    07:00 +12°C° 0 mm 7 mps 756 mmHg 58%
    08:00 +15°C° 0 mm 7 mps 756 mmHg 54%
    09:00 +17°C° 0 mm 7 mps 756 mmHg 50%
    10:00 +18°C° 0 mm 7 mps 756 mmHg 48%
    11:00 +20°C° 0 mm 7 mps 756 mmHg 46%
    12:00 +21°C° 0 mm 7 mps 756 mmHg 44%
    13:00 +22°C° 0 mm 7 mps 756 mmHg 44%
    14:00 +22°C° 0 mm 7 mps 756 mmHg 44%
    15:00 +23°C° 0 mm 6 mps 756 mmHg 43%
    16:00 +23°C° 0 mm 6 mps 756 mmHg 46%
    17:00 +23°C° 0 mm 6 mps 756 mmHg 49%
    18:00 +22°C° 0 mm 5 mps 755 mmHg 51%
    19:00 +21°C° 0 mm 5 mps 756 mmHg 56%
    20:00 +19°C° 0 mm 4 mps 756 mmHg 60%
    21:00 +17°C° 0 mm 4 mps 756 mmHg 64%
    22:00 +17°C° 0 mm 4 mps 756 mmHg 66%
    23:00 +17°C° 0 mm 4 mps 756 mmHg 68%

    Tomorrow, 29 May, Tuesday

    Time Temperature Precipitation Wind Pressure Humidity
    00:00 +15°C° 0 mm 4 mps 756 mmHg 70%
    01:00 +15°C° 0 mm 5 mps 756 mmHg 73%
    02:00 +15°C° 0 mm 6 mps 757 mmHg 76%
    03:00 +15°C° 0 mm 7 mps 757 mmHg 79%
    04:00 +15°C° 0 mm 7 mps 757 mmHg 77%
    05:00 +15°C° 0 mm 8 mps 757 mmHg 74%
    06:00 +15°C° 0 mm 8 mps 757 mmHg 72%
    07:00 +16°C° 0 mm 8 mps 757 mmHg 67%
    08:00 +17°C° 0 mm 9 mps 757 mmHg 63%
    09:00 +18°C° 0 mm 9 mps 758 mmHg 58%
    10:00 +19°C° 0 mm 9 mps 758 mmHg 55%
    11:00 +21°C° 0 mm 9 mps 757 mmHg 51%
    12:00 +21°C° 0 mm 9 mps 757 mmHg 48%
    13:00 +22°C° 0 mm 9 mps 757 mmHg 48%
    14:00 +22°C° 0 mm 9 mps 757 mmHg 48%
    15:00 +22°C° 0 mm 8 mps 757 mmHg 48%
    16:00 +21°C° 0 mm 8 mps 756 mmHg 50%
    17:00 +21°C° 0 mm 8 mps 756 mmHg 51%
    18:00 +20°C° 0 mm 8 mps 756 mmHg 53%
    19:00 +18°C° 0 mm 8 mps 756 mmHg 54%
    20:00 +17°C° 0 mm 8 mps 756 mmHg 55%
    21:00 +15°C° 0 mm 7 mps 756 mmHg 57%
    22:00 +14°C° 0 mm 7 mps 756 mmHg 55%
    23:00 +14°C° 0 mm 7 mps 756 mmHg 54%

    Day after tomorrow, 30 May, Wednesday

    Time Temperature Precipitation Wind Pressure Humidity
    00:00 +12°C° 0 mm 7 mps 756 mmHg 53%
    01:00 +12°C° 0 mm 7 mps 755 mmHg 52%
    02:00 +11°C° 0 mm 7 mps 755 mmHg 52%
    03:00 +11°C° 0 mm 7 mps 755 mmHg 51%
    04:00 +11°C° 0 mm 7 mps 755 mmHg 53%
    05:00 +11°C° 0 mm 7 mps 755 mmHg 54%
    06:00 +11°C° 0 mm 6 mps 755 mmHg 56%
    07:00 +12°C° 0 mm 7 mps 755 mmHg 52%
    08:00 +15°C° 0 mm 7 mps 755 mmHg 49%
    09:00 +17°C° 0 mm 7 mps 755 mmHg 46%
    10:00 +18°C° 0 mm 7 mps 754 mmHg 44%
    11:00 +20°C° 0 mm 7 mps 754 mmHg 41%
    12:00 +21°C° 0 mm 7 mps 754 mmHg 39%
    13:00 +22°C° 0 mm 7 mps 753 mmHg 40%
    14:00 +22°C° 0 mm 7 mps 753 mmHg 40%
    15:00 +23°C° 0 mm 6 mps 752 mmHg 40%
    16:00 +23°C° 0 mm 6 mps 752 mmHg 43%
    17:00 +22°C° 0 mm 6 mps 752 mmHg 45%
    18:00 +22°C° 0 mm 5 mps 751 mmHg 48%
    19:00 +20°C° 0 mm 5 mps 751 mmHg 53%
    20:00 +19°C° 0 mm 4 mps 751 mmHg 57%
    21:00 +17°C° 0 mm 4 mps 751 mmHg 62%
    22:00 +15°C° 0 mm 4 mps 751 mmHg 62%
    23:00 +15°C° 0 mm 4 mps 750 mmHg 63%

    31 May, Thursday

    Time Temperature Precipitation Wind Pressure Humidity
    00:00 +14°C° 0 mm 4 mps 750 mmHg 63%
    01:00 +14°C° 0 mm 4 mps 750 mmHg 62%
    02:00 +14°C° 0 mm 4 mps 750 mmHg 62%
    03:00 +13°C° 0 mm 4 mps 749 mmHg 61%
    04:00 +13°C° 0 mm 4 mps 749 mmHg 62%
    05:00 +13°C° 0 mm 5 mps 749 mmHg 63%
    06:00 +13°C° 0 mm 5 mps 748 mmHg 64%
    07:00 +16°C° 0 mm 5 mps 748 mmHg 59%
    08:00 +19°C° 0 mm 5 mps 748 mmHg 55%
    09:00 +21°C° 0 mm 5 mps 748 mmHg 50%
    10:00 +22°C° 0 mm 5 mps 748 mmHg 47%
    11:00 +23°C° 0 mm 5 mps 747 mmHg 44%
    12:00 +25°C° 0 mm 5 mps 747 mmHg 41%
    13:00 +26°C° 0 mm 5 mps 747 mmHg 41%
    14:00 +26°C° 0 mm 4 mps 746 mmHg 41%
    15:00 +27°C° 0 mm 4 mps 746 mmHg 40%
    16:00 +26°C° 0 mm 4 mps 746 mmHg 43%
    17:00 +26°C° 0 mm 3 mps 745 mmHg 46%
    18:00 +26°C° 0 mm 3 mps 745 mmHg 49%
    19:00 +24°C° 0 mm 3 mps 745 mmHg 55%
    20:00 +21°C° 0 mm 2 mps 745 mmHg 60%
    21:00 +19°C° 0 mm 2 mps 745 mmHg 65%
    22:00 +19°C° 0 mm 2 mps 745 mmHg 67%
    23:00 +18°C° 0 mm 2 mps 745 mmHg 68%

    1 June, Friday

    Time Temperature Precipitation Wind Pressure Humidity
    00:00 +18°C° 0 mm 2 mps 745 mmHg 69%
    01:00 +18°C° 0 mm 2 mps 745 mmHg 70%
    02:00 +17°C° 0 mm 2 mps 745 mmHg 70%
    03:00 +17°C° 0 mm 2 mps 745 mmHg 70%
    04:00 +17°C° 0 mm 2 mps 745 mmHg 70%
    05:00 +17°C° 0 mm 2 mps 745 mmHg 70%
    06:00 +18°C° 0 mm 2 mps 745 mmHg 70%
    07:00 +20°C° 0 mm 2 mps 745 mmHg 65%
    08:00 +21°C° 0 mm 2 mps 745 mmHg 60%
    09:00 +24°C° 0 mm 3 mps 745 mmHg 54%
    10:00 +25°C° 0 mm 2 mps 745 mmHg 51%
    11:00 +26°C° 0 mm 2 mps 745 mmHg 49%
    12:00 +27°C° 0 mm 2 mps 745 mmHg 46%
    13:00 +27°C° 0 mm 2 mps 745 mmHg 46%
    14:00 +28°C° 0 mm 2 mps 744 mmHg 45%
    15:00 +28°C° 0 mm 2 mps 744 mmHg 45%
    16:00 +28°C° 0 mm 2 mps 744 mmHg 48%
    17:00 +27°C° 0 mm 2 mps 744 mmHg 51%
    18:00 +27°C° 0 mm 2 mps 744 mmHg 55%
    19:00 +25°C° 0 mm 2 mps 744 mmHg 59%
    20:00 +24°C° 0 mm 2 mps 744 mmHg 64%
    21:00 +21°C° 0 mm 2 mps 745 mmHg 68%
    22:00 +21°C° 0 mm 2 mps 745 mmHg 70%
    23:00 +20°C° 0 mm 2 mps 745 mmHg 72%

    2 June, Saturday

    Time Temperature Precipitation Wind Pressure Humidity
    00:00 +19°C° 0 mm 2 mps 745 mmHg 74%
    01:00 +19°C° 0 mm 2 mps 745 mmHg 75%
    02:00 +19°C° 0 mm 2 mps 745 mmHg 76%
    03:00 +19°C° 0 mm 2 mps 745 mmHg 77%
    04:00 +19°C° 0 mm 2 mps 745 mmHg 78%
    05:00 +19°C° 0 mm 2 mps 745 mmHg 79%
    06:00 +19°C° 0 mm 2 mps 745 mmHg 80%
    07:00 +20°C° 0 mm 3 mps 746 mmHg 77%
    08:00 +22°C° 0 mm 3 mps 746 mmHg 73%
    09:00 +23°C° 0 mm 4 mps 746 mmHg 70%
    10:00 +25°C° 0.1 mm 4 mps 746 mmHg 67%
    11:00 +26°C° 0.1 mm 4 mps 746 mmHg 64%
    12:00 +27°C° 0.1 mm 4 mps 746 mmHg 60%
    13:00 +27°C° 0.1 mm 4 mps 746 mmHg 59%
    14:00 +27°C° 0.1 mm 4 mps 746 mmHg 57%
    15:00 +27°C° 0.1 mm 4 mps 746 mmHg 55%
    16:00 +27°C° 0.1 mm 4 mps 746 mmHg 57%
    17:00 +26°C° 0.1 mm 3 mps 746 mmHg 58%
    18:00 +26°C° 0.1 mm 3 mps 746 mmHg 59%
    19:00 +24°C° 0 mm 3 mps 747 mmHg 65%
    20:00 +23°C° 0 mm 2 mps 747 mmHg 72%
    21:00 +20°C° 0 mm 2 mps 747 mmHg 78%
    22:00 +20°C° 0 mm 2 mps 747 mmHg 80%
    23:00 +19°C° 0 mm 2 mps 748 mmHg 81%
    Show more